Wind_Speed
10 9 9 3 3 4 3 4 2 3 6 6 7 4 5 2 4 4 7 21 29 37 36 32 28 23 19 17 15 15 17 18 17 15 16 17 17 17 16 14 13 12 12 12 12 12 12 12 12
8 7 4 0 4 3 5 4 4 2 4 16 4 9 4 4 3 2 17 27 28 34 35 33 29 24 20 17 17 15 16 17 17 17 17 18 18 17 14 12 11 11 11 11 11 11 10 10 11
8 5 2 3 3 6 5 4 1 8 15 8 6 9 9 2 4 3 9 26 30 33 33 31 29 26 22 18 16 15 15 16 17 18 18 19 18 15 13 11 10 10 10 11 11 10 9 9 9
7 3 2 4 7 4 5 5 2 6 6 3 5 9 8 9 1 6 16 24 29 32 32 30 28 25 22 19 16 15 14 15 16 17 18 19 17 14 12 11 9 9 10 10 10 10 9 8 8
8 3 2 3 7 3 4 5 3 5 6 12 12 7 6 8 5 9 15 24 26 32 32 30 27 24 22 20 17 15 15 15 16 17 18 18 18 15 12 10 9 8 8 9 9 10 9 9 9
6 3 2 5 7 5 3 8 4 4 11 13 1 7 3 8 3 11 18 24 26 30 31 30 27 24 21 18 16 15 13 13 15 16 17 17 17 14 11 9 8 8 8 7 7 8 9 9 9
7 4 5 5 10 4 5 6 2 4 7 3 4 2 3 7 4 11 27 28 27 31 31 29 27 24 21 19 17 15 13 12 12 14 15 16 15 13 11 9 8 7 7 6 6 7 7 8 8
7 4 6 6 6 6 4 5 1 3 7 9 7 1 2 6 8 16 25 25 30 30 30 29 27 24 22 20 19 16 14 12 10 10 13 14 14 12 10 8 7 7 6 6 5 5 5 6 6
7 3 5 8 8 3 4 3 1 5 5 7 8 5 2 8 12 18 26 26 30 30 29 28 27 25 23 21 20 18 16 14 12 11 11 14 14 14 12 10 8 7 5 5 5 5 4 5 6
6 5 10 6 5 5 4 1 3 5 11 4 10 12 14 14 15 21 26 28 29 29 29 28 26 25 24 22 21 20 18 16 14 13 12 13 14 15 14 12 10 8 7 5 4 4 4 5 6
6 6 6 7 10 12 4 3 3 3 1 3 9 15 14 13 16 18 21 23 25 25 25 26 25 24 22 22 21 21 20 17 16 15 15 14 15 16 15 14 12 9 8 7 5 6 6 7 8
4 8 8 13 6 7 4 4 2 5 5 6 9 18 17 16 15 14 18 21 24 25 24 25 24 22 21 21 21 21 20 19 19 18 17 17 16 16 16 15 13 11 10 9 9 9 9 9 8
6 4 15 12 17 12 7 2 1 3 10 8 11 16 16 15 16 15 13 16 21 25 24 24 24 22 21 20 20 19 19 20 19 19 18 16 16 16 16 16 15 13 13 10 9 8 7 6 7
9 12 6 18 19 8 4 3 5 5 14 11 11 12 13 15 16 17 15 13 14 19 21 22 24 22 21 20 18 18 20 20 19 19 17 17 16 16 16 16 16 15 14 13 11 9 9 9 10
7 5 6 15 6 4 7 9 7 12 12 12 12 12 11 11 17 14 10 9 10 10 15 20 20 20 20 19 19 19 20 20 19 17 16 16 16 16 16 16 16 14 13 13 15 14 13 13 13
7 1 5 5 12 7 9 11 6 21 20 14 14 13 11 7 3 7 13 19 18 18 11 8 17 16 19 21 23 22 21 21 19 18 16 16 16 16 16 17 16 13 14 14 15 17 17 17 16
4 5 5 2 10 9 11 3 9 24 21 16 16 15 12 8 5 4 8 10 17 23 22 23 19 19 19 27 28 24 21 26 25 23 20 18 19 19 17 16 15 14 15 16 16 17 19 19 19
5 7 3 6 6 11 6 4 1 12 21 23 20 19 16 12 10 5 7 3 9 19 22 23 26 27 34 32 31 31 28 34 30 22 20 16 17 17 18 16 15 15 18 19 15 16 17 21 21
6 9 8 6 5 7 9 6 9 15 12 17 20 18 18 15 9 10 9 7 4 10 17 28 30 28 32 31 28 33 37 35 30 23 16 18 19 18 18 18 18 16 20 22 17 19 22 24 24
4 8 7 3 5 3 5 6 9 9 8 23 25 24 22 18 14 12 13 11 8 8 11 23 31 31 36 42 41 36 35 33 23 20 21 19 17 19 21 17 19 18 21 25 22 21 24 24 26
3 6 6 6 4 1 3 3 4 5 10 14 19 21 21 21 19 16 15 18 22 21 18 21 26 27 28 31 33 36 29 25 22 21 17 13 19 18 20 22 17 20 20 25 24 23 26 26 27
11 8 4 8 5 4 2 4 4 6 8 7 20 22 23 24 23 22 21 22 29 28 24 27 28 28 25 27 23 26 26 25 24 20 20 19 13 13 11 13 15 16 20 26 25 24 26 27 29
5 11 5 3 5 4 1 2 6 1 4 8 13 27 30 30 30 29 28 26 32 32 26 25 30 30 28 30 28 29 30 26 22 20 19 16 16 17 18 21 19 21 26 31 29 26 26 26 26
12 9 5 5 3 1 5 5 5 3 7 4 7 23 28 29 30 31 31 30 31 30 27 30 24 31 31 29 31 32 37 28 21 23 26 27 23 23 24 24 26 26 32 34 33 28 28 28 26
6 15 3 2 1 5 6 4 8 6 7 7 9 24 25 24 24 30 34 36 35 29 29 31 33 30 30 26 24 23 28 32 22 26 27 28 29 29 25 27 26 28 33 29 30 29 29 31 29
11 7 5 7 5 5 6 4 5 4 5 8 22 25 21 17 16 26 27 33 36 30 29 27 31 29 23 20 14 13 18 21 19 20 21 23 26 24 23 27 27 26 25 26 28 29 30 32 30
10 8 6 7 2 5 4 5 5 5 6 11 15 2 9 8 12 16 20 22 24 22 20 16 19 17 13 9 6 6 6 10 12 12 13 12 11 12 12 16 18 20 23 29 32 30 33 34 34
13 9 2 3 4 4 1 2 4 8 12 13 8 5 15 18 20 21 21 20 16 17 17 16 17 16 14 12 8 5 8 10 6 5 6 7 8 10 12 14 16 17 18 19 19 19 22 27 23
9 9 4 6 3 5 4 4 5 6 10 11 3 11 21 29 29 27 28 30 32 33 30 30 23 16 11 3 5 5 8 7 6 3 5 7 9 11 13 15 16 17 18 18 18 18 17 21 21
6 8 6 5 1 3 4 4 2 6 8 3 14 19 21 33 35 37 37 37 37 28 19 17 18 14 9 12 13 9 9 8 7 7 8 9 11 12 13 15 17 18 18 19 19 20 20 20 21
Wind_Direction
279 294 308 304 57 60 269 255 281 281 1 345 289 232 237 240 168 213 146 164 168 169 168 167 165 166 165 166 165 161 166 169 172 172 164 154 151 147 144 136 131 128 129 129 130 129 125 122 119
264 278 285 204 110 118 261 261 195 300 316 331 298 309 261 244 211 134 152 161 168 172 170 170 168 168 168 169 167 162 162 164 165 162 158 155 152 151 148 140 134 132 132 132 136 136 130 123 126
237 263 231 123 141 178 206 213 63 329 319 321 322 325 297 351 127 116 177 164 172 174 174 173 171 172 173 175 171 162 159 162 162 160 158 156 155 155 153 145 139 138 137 137 144 148 141 136 135
201 190 101 116 228 244 197 196 311 330 316 59 280 285 272 285 332 177 175 169 175 176 176 176 176 177 178 178 175 166 159 163 163 162 161 160 161 163 160 151 147 145 142 141 150 157 159 154 158
187 171 119 166 247 200 255 274 333 319 287 296 290 269 254 343 292 167 171 171 180 179 179 178 179 182 183 182 181 174 163 163 167 168 166 167 167 167 163 157 154 148 144 143 152 161 170 173 175
155 137 118 195 249 164 207 241 312 294 298 312 291 284 311 316 282 170 175 176 180 182 183 181 180 182 187 188 186 181 175 168 172 175 174 174 173 169 166 162 155 151 150 148 153 162 171 177 182
145 114 199 187 233 263 178 210 199 260 285 284 286 222 295 354 175 167 178 180 180 184 184 184 183 183 185 191 194 193 190 182 178 183 183 182 179 174 174 169 158 155 157 157 160 165 171 179 184
168 112 171 208 193 250 178 176 269 284 281 311 336 310 353 358 168 178 175 179 178 183 186 188 188 189 190 192 192 195 199 198 193 192 194 196 191 188 188 181 168 162 164 171 179 183 179 179 188
172 114 199 203 176 222 168 129 100 347 328 45 25 20 314 166 168 174 171 178 176 183 188 191 192 192 194 197 196 195 198 201 204 206 205 207 205 199 199 193 187 178 180 185 196 200 196 200 207
163 180 200 193 185 209 202 150 5 27 10 44 79 99 133 149 159 165 168 171 177 182 189 192 196 197 197 200 201 200 203 206 210 216 219 218 218 213 208 206 203 198 200 205 213 220 221 223 226
177 199 173 204 204 239 251 349 297 15 3 14 136 121 128 149 160 160 163 174 184 194 197 196 200 206 208 208 209 208 210 214 219 224 225 225 224 222 219 216 215 215 222 226 229 235 237 236 242
170 203 177 215 186 219 265 328 47 195 170 113 145 138 128 130 141 167 170 174 182 191 198 202 203 206 209 214 215 214 217 220 225 229 230 228 229 227 224 225 228 228 236 237 240 239 244 248 248
193 180 202 218 230 225 250 210 129 80 140 122 115 164 144 132 131 134 161 171 181 186 197 201 204 208 211 215 216 218 224 226 229 231 232 232 233 232 232 229 232 237 237 236 228 233 232 250 258
198 183 184 210 224 233 180 220 219 224 178 154 130 132 175 172 144 142 140 157 189 187 192 205 208 212 213 214 218 222 228 229 231 234 237 236 235 236 235 233 236 239 240 235 240 255 255 253 260
114 109 216 232 183 215 170 258 203 184 175 163 150 134 128 171 195 215 201 194 171 171 203 209 207 218 224 226 224 228 234 235 233 237 237 239 242 242 241 239 238 239 243 242 242 254 264 271 273
157 109 162 243 188 205 169 242 172 186 173 164 168 160 156 154 192 219 227 232 224 224 191 162 189 211 231 234 232 229 236 238 234 229 233 238 240 239 241 246 242 242 242 247 255 259 263 272 276
214 165 161 225 206 185 180 131 180 175 176 177 173 176 182 190 193 232 250 236 227 221 217 212 215 217 243 244 235 234 240 237 229 228 223 228 238 240 239 241 243 237 245 249 257 267 273 273 274
152 118 142 177 202 202 153 167 97 187 190 195 200 193 199 214 214 211 257 247 251 230 227 211 214 223 213 219 229 231 235 233 230 229 222 220 224 234 239 241 241 243 247 251 263 276 286 283 279
142 137 137 215 220 141 208 166 220 239 200 191 199 198 201 216 237 230 239 247 283 238 240 222 224 230 220 217 235 233 229 231 239 239 234 228 236 244 255 267 263 262 269 264 262 274 280 283 285
137 148 178 203 225 132 158 199 226 219 212 202 203 212 212 212 222 238 230 233 255 286 250 229 225 232 234 243 251 238 242 238 242 236 243 240 255 267 266 269 278 274 281 277 265 273 279 285 285
151 140 157 168 122 70 112 288 202 236 224 226 220 224 221 214 212 225 245 246 255 262 272 248 238 240 242 243 245 238 233 226 234 249 252 270 279 275 276 269 273 279 285 293 283 278 278 284 287
182 195 149 130 105 171 71 258 246 210 214 224 234 229 223 223 220 224 233 233 241 250 253 255 245 240 238 242 235 221 233 235 241 255 276 288 294 285 300 289 282 277 280 273 275 273 277 282 283
183 168 178 109 97 114 334 83 276 135 233 230 233 234 234 233 230 224 227 234 228 233 233 244 250 241 236 236 234 237 240 243 249 266 276 276 281 276 284 290 280 276 274 277 278 271 273 275 281
152 128 53 48 83 297 212 140 290 215 216 248 226 240 246 241 241 239 232 230 225 227 223 237 245 234 245 246 252 244 235 244 266 291 291 274 277 280 278 282 283 277 267 270 273 272 272 268 266
134 142 101 50 204 211 182 116 238 251 263 236 269 274 264 250 253 236 224 220 217 221 222 224 236 232 240 245 249 244 239 244 270 293 289 289 293 283 277 278 280 272 271 264 267 269 272 269 267
182 143 144 161 163 172 137 206 235 205 303 288 285 284 256 239 244 234 223 206 216 220 224 240 242 235 236 234 246 248 248 250 278 278 286 290 285 288 275 273 275 275 269 266 265 266 267 266 269
194 194 164 106 54 93 200 280 317 323 319 311 314 275 201 215 198 201 207 212 213 215 223 223 215 209 217 214 213 215 226 246 260 281 293 300 303 298 301 293 293 291 284 276 269 269 266 271 273
181 157 114 6 124 134 299 248 229 339 315 316 329 67 121 137 154 166 169 175 168 161 155 154 159 151 155 152 149 170 231 233 231 289 322 329 319 318 318 316 319 321 316 310 304 294 274 263 260
139 172 69 112 95 140 132 262 218 270 286 301 111 102 116 132 139 140 132 125 122 121 122 119 116 114 97 97 71 102 90 59 49 20 340 322 322 319 320 318 315 311 310 308 307 304 294 278 274
146 163 123 117 158 69 123 283 288 293 294 112 107 109 119 134 134 128 123 119 109 85 93 92 94 107 117 106 107 69 49 36 21 5 350 333 324 315 309 305 307 309 307 306 304 301 296 290 284
Height
1502 1502 1503 1503 1514 1517 1521 1507 1493 1490 1488 1486 1486 1485 1483 1478 1481 1496 1480 1482 1488 1494 1499 1505 1509 1514 1517 1519 1522 1524 1527 1529 1531 1534 1536 1538 1540 1543 1545 1546 1548 1550 1551 1552 1553 1555 1556 1557 1558
1500 1501 1502 1502 1518 1531 1525 1502 1495 1487 1485 1485 1483 1481 1481 1479 1478 1480 1482 1485 1490 1495 1500 1506 1510 1515 1518 1521 1523 1526 1528 1530 1532 1535 1538 1541 1543 1546 1548 1549 1550 1552 1553 1554 1555 1557 1558 1559 1560
1499 1500 1502 1505 1519 1524 1516 1498 1492 1488 1485 1483 1484 1481 1480 1480 1479 1481 1483 1486 1491 1496 1503 1508 1512 1516 1519 1523 1525 1527 1530 1532 1535 1537 1540 1543 1545 1548 1549 1551 1552 1553 1554 1555 1556 1558 1559 1560 1562
1498 1500 1502 1510 1512 1505 1496 1494 1491 1489 1484 1483 1484 1482 1480 1479 1480 1481 1484 1488 1494 1498 1504 1510 1514 1518 1521 1524 1527 1529 1532 1535 1537 1540 1542 1544 1547 1550 1551 1552 1553 1555 1555 1556 1557 1557 1559 1561 1562
1495 1498 1507 1511 1506 1498 1492 1489 1491 1488 1486 1482 1484 1480 1478 1478 1479 1483 1484 1488 1495 1500 1505 1510 1515 1519 1523 1526 1529 1531 1533 1536 1539 1542 1543 1546 1547 1550 1552 1553 1554 1556 1557 1558 1558 1559 1559 1560 1561
1494 1497 1512 1514 1503 1493 1491 1489 1489 1489 1485 1483 1483 1483 1479 1479 1480 1483 1486 1489 1494 1500 1506 1511 1515 1520 1525 1529 1532 1534 1536 1537 1540 1543 1545 1547 1548 1550 1553 1554 1555 1556 1557 1558 1560 1561 1560 1561 1562
1489 1498 1507 1503 1496 1492 1490 1487 1489 1489 1486 1485 1483 1482 1480 1479 1481 1484 1486 1490 1494 1501 1507 1512 1517 1521 1525 1530 1533 1536 1538 1539 1541 1544 1546 1548 1550 1550 1552 1554 1556 1557 1558 1559 1560 1561 1561 1561 1562
1487 1491 1501 1499 1497 1494 1485 1486 1487 1487 1484 1482 1481 1480 1480 1480 1481 1483 1485 1491 1495 1502 1508 1512 1517 1521 1525 1529 1532 1536 1539 1541 1543 1546 1548 1550 1551 1552 1554 1555 1555 1557 1557 1559 1559 1561 1561 1562 1562
1484 1496 1502 1493 1494 1488 1484 1484 1486 1487 1484 1483 1482 1481 1480 1478 1480 1482 1486 1492 1497 1501 1507 1513 1516 1520 1524 1529 1532 1535 1538 1540 1542 1545 1547 1549 1550 1551 1552 1553 1554 1555 1557 1557 1558 1559 1560 1560 1560
1480 1491 1489 1482 1483 1483 1483 1483 1484 1485 1484 1484 1484 1485 1483 1479 1482 1483 1485 1491 1495 1500 1505 1511 1515 1519 1523 1527 1531 1534 1537 1540 1541 1543 1546 1548 1550 1551 1552 1552 1553 1554 1555 1556 1557 1558 1559 1559 1559
1475 1481 1478 1478 1480 1481 1482 1483 1485 1485 1486 1485 1484 1485 1484 1482 1485 1486 1487 1489 1494 1501 1506 1511 1515 1520 1522 1526 1529 1533 1537 1539 1540 1542 1544 1546 1548 1550 1551 1552 1552 1553 1555 1555 1555 1556 1557 1557 1558
1474 1474 1475 1477 1478 1480 1481 1483 1483 1482 1484 1484 1484 1484 1484 1483 1485 1486 1486 1488 1492 1497 1504 1510 1514 1518 1521 1525 1527 1530 1533 1535 1537 1539 1541 1542 1544 1546 1548 1550 1552 1552 1554 1554 1554 1553 1554 1554 1555
1471 1471 1473 1475 1476 1478 1480 1483 1483 1483 1483 1484 1484 1485 1484 1485 1485 1487 1489 1491 1493 1495 1502 1508 1512 1516 1520 1524 1525 1528 1530 1531 1533 1536 1537 1539 1542 1543 1545 1547 1548 1551 1552 1553 1553 1552 1552 1553 1554
1466 1469 1470 1470 1473 1476 1480 1481 1483 1481 1482 1484 1484 1484 1485 1486 1487 1489 1491 1492 1495 1496 1498 1505 1510 1514 1518 1521 1524 1526 1528 1530 1531 1533 1534 1535 1538 1541 1542 1544 1545 1548 1550 1552 1552 1553 1552 1553 1552
1465 1470 1471 1467 1472 1475 1478 1480 1479 1481 1482 1482 1483 1484 1484 1485 1487 1489 1489 1491 1494 1495 1497 1501 1508 1512 1517 1520 1522 1523 1527 1529 1529 1530 1531 1533 1536 1538 1541 1542 1543 1546 1549 1549 1549 1550 1551 1551 1550
1465 1468 1477 1465 1467 1472 1474 1474 1474 1477 1480 1481 1482 1483 1483 1484 1486 1487 1488 1489 1490 1492 1495 1498 1502 1506 1512 1517 1519 1518 1521 1527 1527 1526 1527 1530 1533 1534 1536 1540 1541 1544 1546 1546 1546 1546 1547 1547 1547
1464 1471 1472 1463 1459 1465 1471 1477 1470 1474 1477 1479 1480 1481 1483 1483 1484 1485 1485 1486 1488 1489 1491 1492 1499 1503 1506 1511 1516 1518 1516 1521 1522 1520 1521 1524 1529 1531 1533 1535 1540 1541 1543 1543 1542 1542 1542 1542 1543
1464 1464 1466 1465 1460 1463 1469 1475 1470 1471 1474 1475 1477 1479 1480 1480 1481 1483 1483 1484 1483 1485 1488 1491 1497 1500 1499 1506 1509 1513 1513 1515 1519 1522 1520 1523 1525 1528 1531 1534 1538 1538 1538 1539 1538 1538 1538 1538 1538
1451 1455 1462 1462 1455 1460 1467 1472 1471 1468 1470 1473 1474 1475 1476 1477 1479 1480 1481 1481 1483 1482 1483 1487 1492 1495 1498 1499 1504 1507 1508 1512 1517 1521 1520 1521 1522 1525 1528 1532 1535 1534 1534 1537 1534 1533 1535 1536 1535
1447 1455 1459 1455 1454 1459 1465 1471 1467 1465 1465 1467 1469 1470 1472 1474 1475 1477 1479 1479 1480 1482 1482 1485 1488 1492 1494 1497 1501 1505 1509 1510 1515 1518 1519 1518 1519 1522 1526 1528 1530 1531 1532 1532 1530 1530 1531 1532 1531
1452 1453 1455 1456 1454 1458 1460 1470 1467 1462 1462 1462 1464 1466 1468 1471 1472 1474 1476 1477 1477 1479 1481 1481 1484 1487 1490 1493 1496 1499 1506 1507 1512 1515 1516 1516 1516 1518 1522 1525 1524 1527 1529 1527 1526 1526 1526 1527 1526
1452 1446 1445 1450 1460 1475 1464 1485 1464 1461 1461 1460 1461 1462 1464 1465 1468 1471 1473 1475 1474 1474 1479 1479 1481 1483 1486 1489 1492 1497 1502 1505 1510 1511 1510 1510 1514 1516 1516 1517 1517 1519 1523 1524 1522 1521 1522 1522 1519
1443 1442 1447 1448 1463 1467 1468 1476 1466 1461 1462 1460 1456 1455 1455 1456 1459 1462 1465 1468 1468 1470 1473 1476 1478 1481 1483 1486 1491 1495 1500 1503 1504 1504 1507 1509 1512 1514 1514 1512 1513 1511 1516 1517 1518 1514 1515 1516 1517
1433 1445 1452 1463 1468 1481 1468 1473 1473 1460 1450 1447 1444 1444 1445 1447 1450 1453 1456 1459 1461 1465 1467 1472 1475 1478 1481 1484 1485 1489 1493 1497 1499 1502 1504 1508 1508 1507 1506 1505 1505 1505 1509 1509 1510 1508 1509 1510 1510
1432 1441 1476 1481 1483 1483 1464 1474 1467 1446 1441 1440 1440 1436 1436 1440 1442 1442 1445 1450 1454 1458 1463 1466 1469 1472 1477 1480 1482 1484 1488 1494 1498 1500 1502 1500 1499 1499 1500 1501 1501 1501 1500 1501 1501 1503 1503 1504 1505
1428 1437 1459 1467 1479 1473 1462 1469 1454 1441 1439 1438 1434 1427 1428 1432 1434 1436 1439 1444 1450 1454 1458 1461 1463 1470 1475 1478 1480 1484 1488 1492 1495 1498 1497 1496 1495 1495 1495 1498 1496 1494 1494 1492 1491 1493 1497 1498 1496
1427 1433 1432 1452 1454 1465 1466 1453 1441 1439 1436 1432 1426 1419 1421 1426 1429 1435 1440 1446 1451 1454 1455 1457 1459 1467 1475 1478 1482 1485 1484 1488 1492 1492 1494 1494 1494 1493 1493 1493 1491 1489 1487 1487 1486 1483 1488 1488 1489
1410 1422 1439 1451 1462 1460 1463 1454 1453 1444 1439 1433 1426 1423 1423 1424 1429 1435 1440 1444 1448 1451 1454 1458 1463 1468 1472 1477 1482 1484 1485 1488 1489 1489 1493 1495 1495 1492 1491 1491 1488 1486 1484 1483 1481 1479 1479 1480 1481
1417 1423 1435 1442 1452 1465 1476 1463 1446 1444 1440 1435 1428 1428 1429 1428 1432 1438 1443 1448 1451 1455 1458 1462 1465 1470 1477 1482 1485 1492 1494 1489 1487 1490 1492 1493 1492 1491 1490 1489 1488 1485 1483 1480 1478 1477 1476 1476 1476
1408 1418 1426 1447 1452 1461 1466 1465 1441 1441 1438 1433 1430 1433 1437 1434 1439 1441 1446 1451 1455 1459 1466 1468 1472 1474 1480 1486 1491 1494 1492 1492 1490 1491 1491 1492 1491 1489 1485 1483 1484 1483 1480 1478 1475 1473 1472 1471 1470